| time (UTC) | temp F | wind direction | speed MPH | gust MPH | rain 1hr in | rain 24hr in | rain mn in | humidity % | barometer mb |
| 20260901020025 | 90 | 150 | 1.0 | 2.0 | 0.00 | 0.00 | 0.00 | 42 | 1010.5 |
| 20260901015404 | 91 | 0 | 0.0 | 0.0 | 0.00 | 0.00 | 0.00 | 41 | 1010.4 |
| 20260901014524 | 91 | 142 | 0.0 | 2.0 | 0.00 | 0.00 | 0.00 | 40 | 1010.3 |
| 20260901013604 | 92 | 148 | 1.0 | 2.0 | 0.00 | 0.00 | 0.00 | 40 | 1010.2 |
| 20260901012704 | 92 | 149 | 1.0 | 4.0 | 0.00 | 0.00 | 0.00 | 39 | 1010.2 |
| 20260901011803 | 93 | 149 | 2.0 | 4.0 | 0.00 | 0.00 | 0.00 | 38 | 1010.2 |
| 20260901010925 | 94 | 142 | 1.0 | 4.0 | 0.00 | 0.00 | 0.00 | 38 | 1010.1 |
| 20260901010003 | 94 | 143 | 1.0 | 3.0 | 0.00 | 0.00 | 0.00 | 37 | 1010.1 |
| 20260901005404 | 94 | 142 | 1.0 | 4.0 | 0.00 | 0.00 | 0.00 | 37 | 1010.0 |
| 20260901004503 | 95 | 150 | 2.0 | 5.0 | 0.00 | 0.00 | 0.00 | 36 | 1010.0 |
| 20260901003604 | 95 | 144 | 2.0 | 6.0 | 0.00 | 0.00 | 0.00 | 36 | 1010.0 |
| 20260901002703 | 96 | 143 | 2.0 | 8.0 | 0.00 | 0.00 | 0.00 | 35 | 1010.0 |
| 20260901001803 | 96 | 147 | 2.0 | 6.0 | 0.00 | 0.00 | 0.00 | 35 | 1010.0 |
| 20260901000904 | 97 | 152 | 2.0 | 6.0 | 0.00 | 0.00 | 0.00 | 35 | 1010.0 |
| 20260901000003 | 97 | 161 | 3.0 | 8.0 | 0.00 | 0.00 | 0.00 | 35 | 1009.9 |
| 20260831235403 | 97 | 158 | 3.0 | 8.0 | 0.00 | 0.00 | 0.00 | 35 | 1010.0 |
| 20260831234503 | 97 | 151 | 2.0 | 6.0 | 0.00 | 0.00 | 0.00 | 35 | 1010.0 |
| 20260831233603 | 97 | 145 | 3.0 | 7.0 | 0.00 | 0.00 | 0.00 | 35 | 1010.1 |
| 20260831232704 | 98 | 149 | 3.0 | 9.0 | 0.00 | 0.00 | 0.00 | 34 | 1010.0 |
| 20260831231803 | 98 | 143 | 3.0 | 8.0 | 0.00 | 0.00 | 0.00 | 35 | 1010.0 |
| 20260831230925 | 98 | 148 | 3.0 | 11.0 | 0.00 | 0.00 | 0.00 | 33 | 1010.0 |
| 20260831230004 | 98 | 135 | 3.0 | 7.0 | 0.00 | 0.00 | 0.00 | 33 | 1010.0 |
| 20260831225404 | 99 | 142 | 4.0 | 11.0 | 0.00 | 0.00 | 0.00 | 32 | 1010.0 |
| 20260831224503 | 100 | 146 | 5.0 | 11.0 | 0.00 | 0.00 | 0.00 | 32 | 1010.1 |
| 20260831223604 | 100 | 165 | 3.0 | 7.0 | 0.00 | 0.00 | 0.00 | 31 | 1010.1 |
| 20260831222703 | 100 | 158 | 4.0 | 8.0 | 0.00 | 0.00 | 0.00 | 31 | 1010.1 |
| 20260831221804 | 102 | 158 | 4.0 | 11.0 | 0.00 | 0.00 | 0.00 | 30 | 1010.2 |
| 20260831220904 | 102 | 139 | 2.0 | 7.0 | 0.00 | 0.00 | 0.00 | 30 | 1010.2 |
| 20260831220004 | 102 | 153 | 3.0 | 10.0 | 0.00 | 0.00 | 0.00 | 31 | 1010.2 |
| 20260831215403 | 101 | 162 | 4.0 | 16.0 | 0.00 | 0.00 | 0.00 | 31 | 1010.4 |
| 20260831214524 | 101 | 150 | 4.0 | 10.0 | 0.00 | 0.00 | 0.00 | 32 | 1010.4 |
| 20260831213604 | 101 | 157 | 5.0 | 14.0 | 0.00 | 0.00 | 0.00 | 31 | 1010.6 |
| 20260831212703 | 101 | 171 | 4.0 | 10.0 | 0.00 | 0.00 | 0.00 | 32 | 1010.5 |
| 20260831211825 | 100 | 165 | 4.0 | 10.0 | 0.00 | 0.00 | 0.00 | 32 | 1010.7 |
| 20260831210903 | 99 | 161 | 3.0 | 10.0 | 0.00 | 0.00 | 0.00 | 33 | 1010.8 |
| 20260831210024 | 99 | 148 | 5.0 | 10.0 | 0.00 | 0.00 | 0.00 | 33 | 1010.9 |
| 20260831205404 | 101 | 142 | 4.0 | 10.0 | 0.00 | 0.00 | 0.00 | 32 | 1011.0 |
| 20260831204503 | 100 | 139 | 5.0 | 9.0 | 0.00 | 0.00 | 0.00 | 33 | 1011.2 |
| 20260831203603 | 99 | 167 | 3.0 | 8.0 | 0.00 | 0.00 | 0.00 | 34 | 1011.4 |
| 20260831202704 | 98 | 168 | 4.0 | 10.0 | 0.00 | 0.00 | 0.00 | 34 | 1011.5 |
| 20260831201803 | 100 | 157 | 6.0 | 12.0 | 0.00 | 0.00 | 0.00 | 33 | 1011.6 |
| 20260831200903 | 101 | 158 | 7.0 | 16.0 | 0.00 | 0.00 | 0.00 | 33 | 1011.7 |
| 20260831200003 | 101 | 167 | 5.0 | 13.0 | 0.00 | 0.00 | 0.00 | 34 | 1011.8 |
| 20260831195403 | 101 | 166 | 6.0 | 14.0 | 0.00 | 0.00 | 0.00 | 32 | 1011.8 |
| 20260831194503 | 100 | 163 | 5.0 | 13.0 | 0.00 | 0.00 | 0.00 | 34 | 1011.9 |
| 20260831193604 | 98 | 154 | 5.0 | 12.0 | 0.00 | 0.00 | 0.00 | 37 | 1012.0 |
| 20260831192724 | 98 | 154 | 6.0 | 10.0 | 0.00 | 0.00 | 0.00 | 36 | 1012.1 |
| 20260831191804 | 99 | 160 | 5.0 | 10.0 | 0.00 | 0.00 | 0.00 | 37 | 1012.2 |
| 20260831190904 | 99 | 157 | 5.0 | 12.0 | 0.00 | 0.00 | 0.00 | 36 | 1012.3 |
| 20260831190003 | 100 | 173 | 6.0 | 14.0 | 0.00 | 0.00 | 0.00 | 35 | 1012.4 |
| 20260831185425 | 100 | 165 | 5.0 | 11.0 | 0.00 | 0.00 | 0.00 | 37 | 1012.4 |
| 20260831184503 | 100 | 164 | 4.0 | 13.0 | 0.00 | 0.00 | 0.00 | 38 | 1012.5 |
| 20260831183604 | 99 | 164 | 6.0 | 12.0 | 0.00 | 0.00 | 0.00 | 39 | 1012.7 |
| 20260831182703 | 99 | 151 | 5.0 | 12.0 | 0.00 | 0.00 | 0.00 | 38 | 1012.8 |
| 20260831181824 | 99 | 158 | 7.0 | 16.0 | 0.00 | 0.00 | 0.00 | 38 | 1012.9 |
| 20260831180924 | 99 | 152 | 5.0 | 16.0 | 0.00 | 0.00 | 0.00 | 38 | 1013.0 |
| 20260831180003 | 98 | 150 | 4.0 | 11.0 | 0.00 | 0.00 | 0.00 | 41 | 1013.2 |
| 20260831175403 | 98 | 161 | 5.0 | 12.0 | 0.00 | 0.00 | 0.00 | 40 | 1013.4 |
| 20260831174503 | 97 | 168 | 6.0 | 12.0 | 0.00 | 0.00 | 0.00 | 41 | 1013.5 |
| 20260831173603 | 97 | 166 | 5.0 | 11.0 | 0.00 | 0.00 | 0.00 | 42 | 1013.7 |
| 20260831172704 | 96 | 193 | 4.0 | 11.0 | 0.00 | 0.00 | 0.00 | 42 | 1013.8 |
| 20260831171804 | 96 | 179 | 5.0 | 12.0 | 0.00 | 0.00 | 0.00 | 41 | 1013.9 |
| 20260831170903 | 96 | 184 | 5.0 | 14.0 | 0.00 | 0.00 | 0.00 | 42 | 1013.9 |
| 20260831170003 | 95 | 177 | 4.0 | 10.0 | 0.00 | 0.00 | 0.00 | 43 | 1014.0 |
| 20260831165404 | 95 | 168 | 5.0 | 12.0 | 0.00 | 0.00 | 0.00 | 43 | 1014.1 |
| 20260831164503 | 94 | 178 | 4.0 | 11.0 | 0.00 | 0.00 | 0.00 | 44 | 1014.1 |
| 20260831163603 | 93 | 184 | 4.0 | 10.0 | 0.00 | 0.00 | 0.00 | 45 | 1014.0 |
| 20260831162704 | 92 | 193 | 5.0 | 12.0 | 0.00 | 0.00 | 0.00 | 48 | 1014.1 |
| 20260831161803 | 92 | 170 | 4.0 | 12.0 | 0.00 | 0.00 | 0.00 | 49 | 1014.0 |
| 20260831160904 | 91 | 166 | 4.0 | 10.0 | 0.00 | 0.00 | 0.00 | 51 | 1014.1 |
| 20260831160004 | 90 | 181 | 3.0 | 9.0 | 0.00 | 0.00 | 0.00 | 53 | 1014.0 |
| 20260831155403 | 89 | 179 | 3.0 | 8.0 | 0.00 | 0.00 | 0.00 | 56 | 1014.0 |
| 20260831154503 | 88 | 183 | 4.0 | 10.0 | 0.00 | 0.00 | 0.00 | 58 | 1014.0 |
| 20260831153624 | 87 | 195 | 5.0 | 10.0 | 0.00 | 0.00 | 0.00 | 58 | 1013.9 |
| 20260831152703 | 87 | 183 | 5.0 | 10.0 | 0.00 | 0.00 | 0.00 | 60 | 1013.9 |
| 20260831151803 | 86 | 189 | 5.0 | 9.0 | 0.00 | 0.00 | 0.00 | 62 | 1014.0 |
| 20260831150924 | 86 | 172 | 5.0 | 12.0 | 0.00 | 0.00 | 0.00 | 63 | 1013.9 |
| 20260831150003 | 85 | 187 | 4.0 | 10.0 | 0.00 | 0.00 | 0.00 | 66 | 1013.8 |
| 20260831145403 | 84 | 197 | 4.0 | 10.0 | 0.00 | 0.00 | 0.00 | 67 | 1013.8 |
| 20260831144503 | 84 | 189 | 5.0 | 12.0 | 0.00 | 0.00 | 0.00 | 68 | 1013.8 |
| 20260831143603 | 83 | 199 | 6.0 | 12.0 | 0.00 | 0.00 | 0.00 | 69 | 1013.8 |
| 20260831142704 | 83 | 203 | 5.0 | 10.0 | 0.00 | 0.00 | 0.00 | 71 | 1013.7 |
| 20260831141803 | 82 | 203 | 5.0 | 14.0 | 0.00 | 0.00 | 0.00 | 73 | 1013.7 |
| 20260831140903 | 81 | 185 | 4.0 | 10.0 | 0.00 | 0.00 | 0.00 | 75 | 1013.8 |
| 20260831140003 | 80 | 198 | 4.0 | 9.0 | 0.00 | 0.00 | 0.00 | 77 | 1013.7 |
| 20260831135403 | 80 | 196 | 4.0 | 9.0 | 0.00 | 0.00 | 0.00 | 78 | 1013.7 |
| 20260831134503 | 80 | 192 | 4.0 | 10.0 | 0.00 | 0.00 | 0.00 | 80 | 1013.7 |
| 20260831133603 | 79 | 182 | 3.0 | 9.0 | 0.00 | 0.00 | 0.00 | 81 | 1013.6 |
| 20260831132703 | 78 | 167 | 3.0 | 7.0 | 0.00 | 0.00 | 0.00 | 81 | 1013.5 |
| 20260831131824 | 78 | 174 | 3.0 | 6.0 | 0.00 | 0.00 | 0.00 | 82 | 1013.4 |
| 20260831130904 | 77 | 174 | 3.0 | 6.0 | 0.00 | 0.00 | 0.00 | 82 | 1013.2 |
| 20260831130004 | 77 | 178 | 2.0 | 6.0 | 0.00 | 0.00 | 0.00 | 82 | 1013.2 |
| 20260831125403 | 77 | 181 | 2.0 | 7.0 | 0.00 | 0.00 | 0.00 | 82 | 1013.1 |
| 20260831124503 | 76 | 175 | 2.0 | 6.0 | 0.00 | 0.00 | 0.00 | 83 | 1013.0 |
| 20260831123603 | 76 | 176 | 1.0 | 4.0 | 0.00 | 0.00 | 0.00 | 82 | 1012.9 |
| 20260831122703 | 76 | 176 | 1.0 | 4.0 | 0.00 | 0.00 | 0.00 | 81 | 1012.8 |
| 20260831121803 | 76 | 167 | 1.0 | 4.0 | 0.00 | 0.00 | 0.00 | 81 | 1012.7 |
| 20260831120904 | 76 | 172 | 1.0 | 4.0 | 0.00 | 0.00 | 0.00 | 81 | 1012.5 |
| 20260831120024 | 76 | 171 | 1.0 | 5.0 | 0.00 | 0.00 | 0.00 | 80 | 1012.4 |
| 20260831115403 | 76 | 171 | 2.0 | 5.0 | 0.00 | 0.00 | 0.00 | 80 | 1012.5 |
| 20260831114503 | 76 | 169 | 3.0 | 6.0 | 0.00 | 0.00 | 0.00 | 79 | 1012.3 |
| 20260831113603 | 77 | 166 | 2.0 | 6.0 | 0.00 | 0.00 | 0.00 | 79 | 1012.2 |
| 20260831112703 | 77 | 166 | 2.0 | 6.0 | 0.00 | 0.00 | 0.00 | 78 | 1012.1 |
| 20260831111803 | 77 | 164 | 3.0 | 8.0 | 0.00 | 0.00 | 0.00 | 77 | 1012.0 |
| 20260831110903 | 77 | 168 | 2.0 | 5.0 | 0.00 | 0.00 | 0.00 | 77 | 1012.0 |
| 20260831110004 | 78 | 165 | 2.0 | 5.0 | 0.00 | 0.00 | 0.00 | 76 | 1012.0 |
| 20260831105403 | 78 | 168 | 1.0 | 5.0 | 0.00 | 0.00 | 0.00 | 76 | 1012.0 |
| 20260831104504 | 78 | 171 | 1.0 | 6.0 | 0.00 | 0.00 | 0.00 | 75 | 1011.9 |
| 20260831103603 | 78 | 172 | 2.0 | 6.0 | 0.00 | 0.00 | 0.00 | 75 | 1012.0 |
| 20260831102703 | 78 | 175 | 1.0 | 3.0 | 0.00 | 0.00 | 0.00 | 74 | 1011.9 |
| 20260831101803 | 79 | 171 | 1.0 | 4.0 | 0.00 | 0.00 | 0.00 | 73 | 1012.0 |
| 20260831100903 | 79 | 169 | 1.0 | 4.0 | 0.00 | 0.00 | 0.00 | 73 | 1012.0 |
| 20260831100004 | 79 | 166 | 2.0 | 6.0 | 0.00 | 0.00 | 0.00 | 72 | 1011.9 |
| 20260831095403 | 79 | 165 | 2.0 | 6.0 | 0.00 | 0.00 | 0.00 | 72 | 1011.9 |
| 20260831094504 | 80 | 164 | 2.0 | 5.0 | 0.00 | 0.00 | 0.00 | 71 | 1011.8 |
| 20260831093624 | 80 | 168 | 3.0 | 6.0 | 0.00 | 0.00 | 0.00 | 71 | 1011.8 |
| 20260831092703 | 80 | 167 | 2.0 | 7.0 | 0.00 | 0.00 | 0.00 | 70 | 1011.9 |
| 20260831091804 | 80 | 179 | 3.0 | 8.0 | 0.00 | 0.00 | 0.00 | 70 | 1011.8 |
| 20260831090903 | 80 | 181 | 3.0 | 7.0 | 0.00 | 0.00 | 0.00 | 69 | 1011.6 |
| 20260831090004 | 80 | 178 | 3.0 | 8.0 | 0.00 | 0.00 | 0.00 | 68 | 1011.6 |
| 20260831085403 | 81 | 167 | 3.0 | 8.0 | 0.00 | 0.00 | 0.00 | 68 | 1011.6 |
| 20260831084524 | 81 | 170 | 3.0 | 8.0 | 0.00 | 0.00 | 0.00 | 67 | 1011.6 |
| 20260831083603 | 81 | 168 | 4.0 | 8.0 | 0.00 | 0.00 | 0.00 | 67 | 1011.5 |
| 20260831082704 | 82 | 168 | 3.0 | 8.0 | 0.00 | 0.00 | 0.00 | 66 | 1011.5 |
| 20260831081803 | 82 | 172 | 3.0 | 8.0 | 0.00 | 0.00 | 0.00 | 66 | 1011.5 |
| 20260831080903 | 82 | 178 | 3.0 | 8.0 | 0.00 | 0.00 | 0.00 | 65 | 1011.6 |
| 20260831080004 | 82 | 186 | 4.0 | 9.0 | 0.00 | 0.00 | 0.00 | 65 | 1011.5 |
| 20260831075403 | 82 | 186 | 4.0 | 9.0 | 0.00 | 0.00 | 0.00 | 65 | 1011.5 |
| 20260831074525 | 82 | 183 | 3.0 | 8.0 | 0.00 | 0.00 | 0.00 | 64 | 1011.5 |
| 20260831073603 | 82 | 178 | 3.0 | 9.0 | 0.00 | 0.00 | 0.00 | 63 | 1011.5 |
| 20260831072704 | 82 | 181 | 3.0 | 9.0 | 0.00 | 0.00 | 0.00 | 63 | 1011.5 |
| 20260831071824 | 82 | 183 | 3.0 | 8.0 | 0.00 | 0.00 | 0.00 | 62 | 1011.5 |
| 20260831070903 | 82 | 170 | 3.0 | 9.0 | 0.00 | 0.00 | 0.00 | 61 | 1011.5 |
| 20260831070024 | 81 | 170 | 2.0 | 6.0 | 0.00 | 0.00 | 0.00 | 61 | 1011.6 |
| 20260831065403 | 81 | 172 | 3.0 | 6.0 | 0.00 | 0.00 | 0.00 | 60 | 1011.6 |
| 20260831064503 | 81 | 176 | 2.0 | 5.0 | 0.00 | 0.00 | 0.00 | 59 | 1011.7 |
| 20260831063603 | 81 | 177 | 1.0 | 4.0 | 0.00 | 0.00 | 0.00 | 58 | 1011.7 |
| 20260831062703 | 81 | 184 | 1.0 | 4.0 | 0.00 | 0.00 | 0.00 | 58 | 1011.6 |
| 20260831061803 | 81 | 170 | 1.0 | 4.0 | 0.00 | 0.00 | 0.00 | 57 | 1011.5 |
| 20260831060903 | 82 | 162 | 2.0 | 5.0 | 0.00 | 0.00 | 0.00 | 56 | 1011.6 |
| 20260831060024 | 82 | 162 | 2.0 | 6.0 | 0.00 | 0.00 | 0.00 | 55 | 1011.7 |
| 20260831055403 | 82 | 168 | 1.0 | 4.0 | 0.00 | 0.00 | 0.00 | 55 | 1011.6 |
| 20260831054504 | 82 | 169 | 1.0 | 4.0 | 0.00 | 0.00 | 0.00 | 55 | 1011.4 |
| 20260831053603 | 82 | 157 | 1.0 | 4.0 | 0.00 | 0.00 | 0.00 | 54 | 1011.4 |
| 20260831052704 | 83 | 157 | 1.0 | 4.0 | 0.00 | 0.00 | 0.00 | 54 | 1011.4 |
| 20260831051803 | 83 | 167 | 1.0 | 4.0 | 0.00 | 0.00 | 0.00 | 53 | 1011.4 |
| 20260831050904 | 83 | 189 | 0.0 | 2.0 | 0.00 | 0.00 | 0.00 | 52 | 1011.3 |
| 20260831050004 | 84 | 155 | 1.0 | 2.0 | 0.00 | 0.00 | 0.00 | 52 | 1011.2 |
| 20260831045403 | 84 | 158 | 0.0 | 2.0 | 0.00 | 0.00 | 0.00 | 52 | 1011.2 |
| 20260831044504 | 84 | 156 | 0.0 | 2.0 | 0.00 | 0.00 | 0.00 | 51 | 1011.2 |
| 20260831043603 | 84 | 157 | 1.0 | 2.0 | 0.00 | 0.00 | 0.00 | 50 | 1011.1 |
| 20260831042703 | 85 | 154 | 2.0 | 3.0 | 0.00 | 0.00 | 0.00 | 50 | 1011.1 |
| 20260831041803 | 85 | 164 | 1.0 | 3.0 | 0.00 | 0.00 | 0.00 | 50 | 1011.1 |
| 20260831040903 | 85 | 166 | 1.0 | 3.0 | 0.00 | 0.00 | 0.00 | 49 | 1011.1 |
| 20260831040003 | 86 | 166 | 0.0 | 1.0 | 0.00 | 0.00 | 0.00 | 48 | 1011.0 |
| 20260831035403 | 86 | 166 | 0.0 | 1.0 | 0.00 | 0.00 | 0.00 | 47 | 1010.9 |
| 20260831034503 | 87 | 166 | 0.0 | 1.0 | 0.00 | 0.00 | 0.00 | 47 | 1010.8 |
| 20260831033603 | 87 | 166 | 1.0 | 3.0 | 0.00 | 0.00 | 0.00 | 47 | 1010.7 |
| 20260831032724 | 87 | 166 | 1.0 | 3.0 | 0.00 | 0.00 | 0.00 | 46 | 1010.7 |
| 20260831031803 | 88 | 163 | 0.0 | 4.0 | 0.00 | 0.00 | 0.00 | 45 | 1010.7 |
| 20260831030924 | 88 | 155 | 2.0 | 4.0 | 0.00 | 0.00 | 0.00 | 45 | 1010.6 |
| 20260831030003 | 88 | 157 | 1.0 | 3.0 | 0.00 | 0.00 | 0.00 | 44 | 1010.5 |
| 20260831025403 | 88 | 157 | 1.0 | 3.0 | 0.00 | 0.00 | 0.00 | 44 | 1010.5 |
| 20260831024503 | 89 | 157 | 1.0 | 4.0 | 0.00 | 0.00 | 0.00 | 43 | 1010.3 |
| 20260831023603 | 89 | 156 | 2.0 | 6.0 | 0.00 | 0.00 | 0.00 | 43 | 1010.2 |
| 20260831022704 | 89 | 162 | 1.0 | 6.0 | 0.00 | 0.00 | 0.00 | 43 | 1010.1 |
| 20260831021803 | 90 | 151 | 1.0 | 4.0 | 0.00 | 0.00 | 0.00 | 42 | 1010.0 |
| 20260831020903 | 90 | 150 | 1.0 | 3.0 | 0.00 | 0.00 | 0.00 | 42 | 1009.9 |